"read_dt","SO2 (ppb)","flags","PMT voltage (V)","lamp voltage (V)","lamp intensity (Hz)","internal temp (C)","react chamber temp (C)","sample flow (l/min)","pres (mmHg)","SO2 bkg (ppb)","SO2 coefficient"
2017-05-01 00:00:00,1716E-3,5C000400,-0724,0840,11118,029.8,045.5,0.217,747.5,01.17,0.508
2017-05-01 00:01:00,1730E-3,5C000400,-0724,0836,10958,029.7,045.5,0.217,747.6,01.17,0.508
2017-05-01 00:02:00,1675E-3,5C000400,-0724,0840,12128,029.5,045.5,0.217,747.6,01.17,0.508
2017-05-01 00:03:00,1380E-3,5C000400,-0724,0846,12301,029.4,045.5,0.217,747.6,01.17,0.508
2017-05-01 00:04:00,1551E-3,5C000400,-0724,0841,11276,029.2,045.5,0.217,747.6,01.17,0.508
2017-05-01 00:05:00,1652E-3,5C000400,-0724,0838,12280,029.1,045.5,0.217,747.6,01.17,0.508
2017-05-01 00:06:00,1788E-3,5C000400,-0724,0838,12197,029.0,045.5,0.218,747.6,01.17,0.508
2017-05-01 00:07:00,1690E-3,5C000400,-0724,0839,12324,028.9,045.5,0.217,747.6,01.17,0.508
2017-05-01 00:08:00,1597E-3,5C000400,-0724,0836,12258,028.9,045.5,0.218,747.6,01.17,0.508
2017-05-01 00:09:00,1673E-3,5C000400,-0724,0835,11251,028.8,045.5,0.218,747.6,01.17,0.508
2017-05-01 00:10:00,1706E-3,5C000400,-0724,0835,12149,028.8,045.5,0.219,747.5,01.17,0.508
2017-05-01 00:11:00,1645E-3,5C000400,-0724,0837,12194,028.7,045.5,0.219,747.5,01.17,0.508
2017-05-01 00:12:00,1648E-3,5C000400,-0724,0836,11317,028.6,045.5,0.219,747.4,01.17,0.508
2017-05-01 00:13:00,1688E-3,5C000400,-0724,0840,12251,028.6,045.5,0.219,747.4,01.17,0.508
2017-05-01 00:14:00,1653E-3,5C000400,-0724,0835,10972,028.6,045.5,0.219,747.4,01.17,0.508
2017-05-01 00:15:00,1707E-3,5C000400,-0724,0838,12309,028.6,045.5,0.219,747.4,01.17,0.508
2017-05-01 00:16:00,1713E-3,5C000400,-0724,0838,12256,028.6,045.5,0.219,747.4,01.17,0.508
2017-05-01 00:17:00,1728E-3,5C000400,-0724,0837,11077,028.5,045.5,0.219,747.4,01.17,0.508
2017-05-01 00:18:00,1838E-3,5C000400,-0724,0837,12032,028.5,045.5,0.219,747.4,01.17,0.508
2017-05-01 00:19:00,1790E-3,5C000400,-0724,0835,12244,028.4,045.5,0.219,747.5,01.17,0.508
2017-05-01 00:20:00,1646E-3,5C000400,-0724,0836,12187,028.3,045.4,0.219,747.5,01.17,0.508
2017-05-01 00:21:00,1686E-3,5C000400,-0724,0836,12349,028.3,045.5,0.219,747.4,01.17,0.508
2017-05-01 00:22:00,1624E-3,5C000400,-0724,0839,11208,028.3,045.5,0.220,747.5,01.17,0.508
2017-05-01 00:23:00,1561E-3,5C000410,-0724,0837,12371,028.3,045.5,0.219,747.5,01.17,0.508
2017-05-01 00:24:00,1497E-3,5C000410,-0724,0846,9070,028.3,045.5,0.220,747.5,01.17,0.508
2017-05-01 00:25:00,1678E-3,5C000400,-0724,0841,11342,028.2,045.5,0.220,747.5,01.17,0.508
2017-05-01 00:26:00,1625E-3,5C000400,-0724,0838,12293,028.2,045.5,0.220,747.5,01.17,0.508
2017-05-01 00:27:00,1613E-3,5C000400,-0724,0835,12234,028.2,045.5,0.220,747.5,01.17,0.508
2017-05-01 00:28:00,1549E-3,5C000400,-0724,0837,11023,028.2,045.5,0.220,747.5,01.17,0.508
2017-05-01 00:29:00,1508E-3,5C000400,-0724,0842,12386,028.2,045.4,0.220,747.5,01.17,0.508
2017-05-01 00:30:00,1628E-3,5C000400,-0724,0838,11036,028.1,045.4,0.220,747.4,01.17,0.508
2017-05-01 00:31:00,1730E-3,5C000400,-0724,0836,12133,028.1,045.4,0.220,747.5,01.17,0.508
2017-05-01 00:32:00,1765E-3,5C000400,-0724,0836,12027,028.1,045.4,0.220,747.5,01.17,0.508
2017-05-01 00:33:00,1737E-3,5C000400,-0724,0835,10775,028.1,045.5,0.220,747.4,01.17,0.508
2017-05-01 00:34:00,1584E-3,5C000410,-0724,0839,9930,028.1,045.5,0.221,747.5,01.17,0.508
2017-05-01 00:35:00,1677E-3,5C000400,-0724,0837,12455,028.1,045.5,0.220,747.5,01.17,0.508
2017-05-01 00:36:00,1660E-3,5C000400,-0724,0835,12227,028.1,045.5,0.220,747.5,01.17,0.508
2017-05-01 00:37:00,1763E-3,5C000400,-0724,0836,12067,028.1,045.5,0.221,747.5,01.17,0.508
2017-05-01 00:38:00,1681E-3,5C000400,-0724,0835,12040,028.1,045.5,0.221,747.5,01.17,0.508
2017-05-01 00:39:00,1652E-3,5C000400,-0724,0836,11948,028.1,045.5,0.221,747.5,01.17,0.508
2017-05-01 00:40:00,1775E-3,5C000400,-0724,0836,10226,028.1,045.5,0.221,747.5,01.17,0.508
2017-05-01 00:41:00,1499E-3,5C000400,-0724,0842,12338,028.1,045.5,0.220,747.5,01.17,0.508
2017-05-01 00:42:00,1724E-3,5C000400,-0724,0835,12125,028.1,045.5,0.221,747.5,01.17,0.508
2017-05-01 00:43:00,1780E-3,5C000400,-0724,0836,12202,028.1,045.5,0.220,747.4,01.17,0.508
2017-05-01 00:44:00,1694E-3,5C000400,-0724,0835,12022,028.1,045.5,0.221,747.4,01.17,0.508
2017-05-01 00:45:00,1513E-3,5C000400,-0724,0835,12067,028.0,045.4,0.221,747.4,01.17,0.508
2017-05-01 00:46:00,1652E-3,5C000400,-0724,0836,11936,028.0,045.4,0.220,747.4,01.17,0.508
2017-05-01 00:47:00,1603E-3,5C000400,-0724,0838,12174,028.0,045.4,0.221,747.4,01.17,0.508
2017-05-01 00:48:00,1598E-3,5C000400,-0724,0841,11309,028.0,045.4,0.221,747.4,01.17,0.508
2017-05-01 00:49:00,1683E-3,5C000400,-0724,0834,11971,028.0,045.5,0.221,747.3,01.17,0.508
2017-05-01 00:50:00,1762E-3,5C000400,-0724,0839,12288,028.0,045.5,0.221,747.3,01.17,0.508
2017-05-01 00:51:00,1650E-3,5C000400,-0724,0840,12261,028.0,045.5,0.220,747.3,01.17,0.508
2017-05-01 00:52:00,1755E-3,5C000400,-0724,0840,12525,028.0,045.5,0.221,747.4,01.17,0.508
2017-05-01 00:53:00,1662E-3,5C000400,-0724,0837,12340,028.0,045.5,0.221,747.4,01.17,0.508
2017-05-01 00:54:00,1719E-3,5C000400,-0724,0841,8747,028.0,045.5,0.221,747.4,01.17,0.508
2017-05-01 00:55:00,1585E-3,5C000400,-0724,0837,12269,028.0,045.5,0.221,747.4,01.17,0.508
2017-05-01 00:56:00,1575E-3,5C000400,-0724,0836,12296,028.0,045.5,0.221,747.4,01.17,0.508
2017-05-01 00:57:00,1570E-3,5C000400,-0724,0840,11202,028.0,045.5,0.221,747.3,01.17,0.508
2017-05-01 00:58:00,1624E-3,5C000400,-0724,0835,12192,028.0,045.4,0.221,747.3,01.17,0.508
2017-05-01 00:59:00,1700E-3,5C000400,-0724,0835,12219,028.0,045.4,0.221,747.3,01.17,0.508
2017-05-01 01:00:00,1570E-3,5C000400,-0724,0841,12501,027.9,045.5,0.221,747.3,01.17,0.508
2017-05-01 01:01:00,1713E-3,5C000400,-0724,0836,11999,028.0,045.5,0.221,747.3,01.17,0.508
2017-05-01 01:02:00,1829E-3,5C000400,-0724,0836,12050,027.9,045.5,0.221,747.4,01.17,0.508
2017-05-01 01:03:00,1534E-3,5C000400,-0724,0837,9774,027.9,045.4,0.221,747.3,01.17,0.508
2017-05-01 01:04:00,1661E-3,5C000400,-0724,0838,12293,028.0,045.4,0.221,747.3,01.17,0.508
2017-05-01 01:05:00,1703E-3,5C000400,-0724,0840,12204,028.0,045.5,0.221,747.3,01.17,0.508
2017-05-01 01:06:00,1663E-3,5C000400,-0724,0840,12349,028.0,045.5,0.221,747.3,01.17,0.508
2017-05-01 01:07:00,1688E-3,5C000400,-0724,0835,12061,028.0,045.5,0.221,747.3,01.17,0.508
2017-05-01 01:08:00,1794E-3,5C000400,-0724,0835,12109,028.0,045.5,0.221,747.3,01.17,0.508
2017-05-01 01:09:00,1648E-3,5C000400,-0724,0836,12122,028.0,045.5,0.221,747.3,01.17,0.508
2017-05-01 01:10:00,1643E-3,5C000400,-0724,0839,12389,028.0,045.5,0.221,747.3,01.17,0.508
2017-05-01 01:11:00,1599E-3,5C000400,-0724,0843,12569,028.0,045.4,0.221,747.3,01.17,0.508
2017-05-01 01:12:00,1580E-3,5C000400,-0724,0842,11261,028.0,045.4,0.221,747.3,01.17,0.508
2017-05-01 01:13:00,1548E-3,5C000400,-0724,0847,10252,028.0,045.5,0.221,747.3,01.17,0.508
2017-05-01 01:14:00,1649E-3,5C000400,-0724,0842,10127,028.0,045.5,0.221,747.3,01.17,0.508
2017-05-01 01:15:00,1586E-3,5C000400,-0724,0842,11427,028.0,045.5,0.221,747.3,01.17,0.508
2017-05-01 01:16:00,1666E-3,5C000400,-0724,0839,12328,028.0,045.4,0.221,747.3,01.17,0.508
2017-05-01 01:17:00,1569E-3,5C000400,-0724,0837,12121,028.0,045.4,0.221,747.3,01.17,0.508
2017-05-01 01:18:00,1626E-3,5C000400,-0724,0840,11201,028.0,045.4,0.221,747.3,01.17,0.508
2017-05-01 01:19:00,1754E-3,5C000400,-0724,0844,12468,028.0,045.5,0.221,747.2,01.17,0.508
2017-05-01 01:20:00,1626E-3,5C000400,-0724,0838,12242,028.0,045.4,0.221,747.2,01.17,0.508
2017-05-01 01:21:00,1607E-3,5C000400,-0724,0838,9916,028.0,045.4,0.221,747.3,01.17,0.508
2017-05-01 01:22:00,1675E-3,5C000400,-0724,0836,11095,028.0,045.4,0.221,747.2,01.17,0.508
2017-05-01 01:23:00,1495E-3,5C000400,-0724,0842,10050,028.0,045.4,0.221,747.2,01.17,0.508
2017-05-01 01:24:00,1654E-3,5C000400,-0724,0837,11016,028.0,045.4,0.221,747.2,01.17,0.508
2017-05-01 01:25:00,1638E-3,5C000400,-0724,0842,12447,027.9,045.4,0.221,747.2,01.17,0.508
2017-05-01 01:26:00,1578E-3,5C000400,-0724,0848,10130,027.9,045.5,0.221,747.2,01.17,0.508
2017-05-01 01:27:00,1660E-3,5C000400,-0724,0847,12416,027.9,045.5,0.221,747.1,01.17,0.508
2017-05-01 01:28:00,1508E-3,5C000400,-0724,0842,10106,027.9,045.5,0.221,747.1,01.17,0.508
2017-05-01 01:29:00,1663E-3,5C000400,-0724,0840,11307,027.9,045.5,0.221,747.1,01.17,0.508
2017-05-01 01:30:00,1440E-3,5C000400,-0724,0846,12674,027.9,045.4,0.221,747.1,01.17,0.508
2017-05-01 01:31:00,1499E-3,5C000400,-0724,0845,11378,027.9,045.4,0.221,747.1,01.17,0.508
2017-05-01 01:32:00,1810E-3,5C000400,-0724,0838,12277,027.9,045.4,0.221,747.1,01.17,0.508
2017-05-01 01:33:00,1622E-3,5C000400,-0724,0846,10203,027.9,045.5,0.221,747.1,01.17,0.508
2017-05-01 01:34:00,1484E-3,5C000400,-0724,0856,11713,027.9,045.5,0.221,747.1,01.17,0.508
2017-05-01 01:35:00,1529E-3,5C000400,-0724,0843,12406,027.9,045.5,0.221,747.1,01.17,0.508
2017-05-01 01:36:00,1628E-3,5C000400,-0724,0843,12423,027.9,045.5,0.221,747.1,01.17,0.508
2017-05-01 01:37:00,1512E-3,5C000400,-0724,0836,12138,027.9,045.5,0.221,747.1,01.17,0.508
2017-05-01 01:38:00,1722E-3,5C000400,-0724,0836,11085,027.9,045.4,0.221,747.1,01.17,0.508
2017-05-01 01:39:00,1679E-3,5C000400,-0724,0837,11044,027.9,045.4,0.221,747.1,01.17,0.508
2017-05-01 01:40:00,1668E-3,5C000400,-0724,0839,12390,027.9,045.4,0.221,747.1,01.17,0.508
2017-05-01 01:41:00,1716E-3,5C000400,-0724,0838,12247,027.9,045.5,0.221,747.1,01.17,0.508
2017-05-01 01:42:00,1460E-3,5C000400,-0724,0841,12444,027.9,045.4,0.221,747.1,01.17,0.508
2017-05-01 01:43:00,1654E-3,5C000400,-0724,0838,11178,027.9,045.4,0.221,747.1,01.17,0.508
2017-05-01 01:44:00,1575E-3,5C000400,-0724,0838,10975,027.8,045.5,0.221,747.1,01.17,0.508
2017-05-01 01:45:00,1616E-3,5C000400,-0724,0840,11252,027.9,045.4,0.221,747.2,01.17,0.508
2017-05-01 01:46:00,1651E-3,5C000400,-0724,0837,12336,027.9,045.4,0.221,747.2,01.17,0.508
2017-05-01 01:47:00,1687E-3,5C000400,-0724,0836,12143,028.0,045.5,0.221,747.2,01.17,0.508
2017-05-01 01:48:00,1700E-3,5C000400,-0724,0837,12149,028.2,045.5,0.221,747.1,01.17,0.508
2017-05-01 01:49:00,1630E-3,5C000400,-0724,0840,11155,028.3,045.5,0.221,747.2,01.17,0.508
2017-05-01 01:50:00,1704E-3,5C000400,-0724,0837,12083,028.4,045.5,0.221,747.2,01.17,0.508
2017-05-01 01:51:00,1604E-3,5C000400,-0724,0839,12175,028.5,045.5,0.221,747.2,01.17,0.508
2017-05-01 01:52:00,1537E-3,5C000400,-0724,0846,11289,028.6,045.5,0.221,747.2,01.17,0.508
2017-05-01 01:53:00,1807E-3,5C000400,-0724,0839,12206,028.7,045.5,0.220,747.2,01.17,0.508
2017-05-01 01:54:00,1611E-3,5C000410,-0724,0843,8811,028.8,045.5,0.221,747.3,01.17,0.508
2017-05-01 01:55:00,1645E-3,5C000400,-0724,0839,12252,028.9,045.5,0.220,747.2,01.17,0.508
2017-05-01 01:56:00,1582E-3,5C000400,-0724,0841,12515,029.0,045.5,0.220,747.2,01.17,0.508
2017-05-01 01:57:00,1628E-3,5C000400,-0724,0841,12443,029.1,045.5,0.220,747.1,01.17,0.508
2017-05-01 01:58:00,1609E-3,5C000400,-0724,0837,12254,029.2,045.5,0.220,747.1,01.17,0.508
2017-05-01 01:59:00,1694E-3,5C000400,-0724,0841,12230,029.3,045.5,0.219,747.1,01.17,0.508
2017-05-01 02:00:00,1491E-3,5C000400,-0724,0844,11129,029.3,045.5,0.219,747.1,01.17,0.508
2017-05-01 02:01:00,1436E-3,5C000410,-0724,0847,11662,029.3,045.5,0.219,747.0,01.17,0.508
2017-05-01 02:02:00,1509E-3,5C000400,-0724,0850,11431,029.3,045.5,0.219,747.0,01.17,0.508
2017-05-01 02:03:00,1636E-3,5C000400,-0724,0848,11416,029.3,045.5,0.219,747.0,01.17,0.508
2017-05-01 02:04:00,1507E-3,5C000400,-0724,0848,12611,029.1,045.5,0.218,747.0,01.17,0.508
2017-05-01 02:05:00,1607E-3,5C000400,-0724,0842,11203,029.0,045.5,0.219,747.1,01.17,0.508
2017-05-01 02:06:00,1581E-3,5C000400,-0724,0852,10398,028.8,045.5,0.219,747.1,01.17,0.508
2017-05-01 02:07:00,1544E-3,5C000400,-0724,0840,12300,028.7,045.5,0.218,747.1,01.17,0.508
2017-05-01 02:08:00,1572E-3,5C000400,-0724,0847,10095,028.6,045.4,0.219,747.1,01.17,0.508
2017-05-01 02:09:00,1544E-3,5C000400,-0724,0845,12412,028.5,045.4,0.219,747.2,01.17,0.508
2017-05-01 02:10:00,1590E-3,5C000410,-0724,0843,9913,028.4,045.5,0.219,747.1,01.17,0.508
2017-05-01 02:11:00,1625E-3,5C000400,-0724,0847,12755,028.4,045.5,0.219,747.0,01.17,0.508
2017-05-01 02:12:00,1490E-3,5C000400,-0724,0843,12425,028.3,045.5,0.220,747.1,01.17,0.508
2017-05-01 02:13:00,1611E-3,5C000400,-0724,0839,11108,028.4,045.5,0.220,747.1,01.17,0.508
2017-05-01 02:14:00,1562E-3,5C000400,-0724,0844,12325,028.3,045.5,0.220,747.1,01.17,0.508
2017-05-01 02:15:00,1655E-3,5C000400,-0724,0841,12340,028.3,045.5,0.220,747.1,01.17,0.508
2017-05-01 02:16:00,1573E-3,5C000400,-0724,0840,11117,028.3,045.4,0.220,747.1,01.17,0.508
2017-05-01 02:17:00,1650E-3,5C000400,-0724,0840,12155,028.2,045.5,0.220,747.2,01.17,0.508
2017-05-01 02:18:00,1458E-3,5C000400,-0724,0838,12393,028.2,045.5,0.220,747.1,01.17,0.508
2017-05-01 02:19:00,1488E-3,5C000400,-0724,0838,12691,028.1,045.4,0.220,747.2,01.17,0.508
2017-05-01 02:20:00,1510E-3,5C000400,-0724,0839,12323,028.1,045.5,0.220,747.2,01.17,0.508
2017-05-01 02:21:00,1645E-3,5C000400,-0724,0837,11003,028.1,045.4,0.220,747.2,01.17,0.508
2017-05-01 02:22:00,1497E-3,5C000400,-0724,0841,12329,028.1,045.5,0.220,747.2,01.17,0.508
2017-05-01 02:23:00,1715E-3,5C000400,-0724,0844,12531,028.1,045.5,0.220,747.2,01.17,0.508
2017-05-01 02:24:00,1622E-3,5C000400,-0724,0842,12501,028.0,045.5,0.220,747.2,01.17,0.508
2017-05-01 02:25:00,1471E-3,5C000400,-0724,0843,12549,028.0,045.5,0.221,747.2,01.17,0.508
2017-05-01 02:26:00,1439E-3,5C000400,-0724,0842,12394,028.0,045.4,0.220,747.2,01.17,0.508
2017-05-01 02:27:00,1547E-3,5C000400,-0724,0841,12307,028.0,045.5,0.221,747.2,01.17,0.508
2017-05-01 02:28:00,1659E-3,5C000400,-0724,0841,12652,028.0,045.5,0.220,747.2,01.17,0.508
2017-05-01 02:29:00,1604E-3,5C000400,-0724,0839,12255,028.0,045.5,0.221,747.2,01.17,0.508
2017-05-01 02:30:00,1819E-3,5C000400,-0724,0840,12412,027.9,045.5,0.221,747.2,01.17,0.508
2017-05-01 02:31:00,1503E-3,5C000400,-0724,0847,12326,027.9,045.4,0.221,747.2,01.17,0.508
2017-05-01 02:32:00,1670E-3,5C000400,-0724,0842,12394,027.9,045.4,0.221,747.2,01.17,0.508
2017-05-01 02:33:00,1683E-3,5C000400,-0724,0842,10040,027.9,045.4,0.220,747.2,01.17,0.508
2017-05-01 02:34:00,1462E-3,5C000400,-0724,0853,9201,028.0,045.5,0.221,747.2,01.17,0.508
2017-05-01 02:35:00,1638E-3,5C000400,-0724,0842,12488,027.9,045.5,0.221,747.2,01.17,0.508
2017-05-01 02:36:00,1435E-3,5C000400,-0724,0845,11512,027.9,045.5,0.221,747.2,01.17,0.508
2017-05-01 02:37:00,1481E-3,5C000400,-0724,0844,12227,027.9,045.4,0.221,747.2,01.17,0.508
2017-05-01 02:38:00,1628E-3,5C000400,-0724,0843,11254,027.9,045.4,0.221,747.3,01.17,0.508
2017-05-01 02:39:00,1654E-3,5C000400,-0724,0839,11098,027.8,045.4,0.221,747.2,01.17,0.508
2017-05-01 02:40:00,1643E-3,5C000400,-0724,0838,12225,027.9,045.5,0.221,747.2,01.17,0.508
2017-05-01 02:41:00,1610E-3,5C000400,-0724,0841,12530,027.9,045.5,0.221,747.3,01.17,0.508
2017-05-01 02:42:00,1571E-3,5C000400,-0724,0842,11303,027.9,045.5,0.221,747.3,01.17,0.508
2017-05-01 02:43:00,1487E-3,5C000400,-0724,0840,11158,027.8,045.4,0.221,747.3,01.17,0.508
2017-05-01 02:44:00,1549E-3,5C000400,-0724,0844,10028,027.8,045.4,0.221,747.3,01.17,0.508
2017-05-01 02:45:00,1632E-3,5C000400,-0724,0844,12513,027.7,045.4,0.221,747.3,01.17,0.508
2017-05-01 02:46:00,1744E-3,5C000400,-0724,0839,12223,027.8,045.5,0.221,747.3,01.17,0.508
2017-05-01 02:47:00,1625E-3,5C000400,-0724,0847,11294,027.8,045.4,0.221,747.3,01.17,0.508
2017-05-01 02:48:00,1539E-3,5C000400,-0724,0843,12423,027.8,045.4,0.221,747.3,01.17,0.508
2017-05-01 02:49:00,1596E-3,5C000400,-0724,0839,12398,027.8,045.4,0.221,747.3,01.17,0.508
2017-05-01 02:50:00,1628E-3,5C000400,-0724,0841,11213,027.8,045.5,0.221,747.3,01.17,0.508
2017-05-01 02:51:00,1517E-3,5C000400,-0724,0839,12414,027.8,045.5,0.221,747.3,01.17,0.508
2017-05-01 02:52:00,1560E-3,5C000400,-0724,0845,12402,027.8,045.5,0.221,747.3,01.17,0.508
2017-05-01 02:53:00,1523E-3,5C000400,-0724,0844,11315,027.8,045.5,0.222,747.4,01.17,0.508
2017-05-01 02:54:00,1636E-3,5C000400,-0724,0840,12394,027.7,045.4,0.221,747.3,01.17,0.508
2017-05-01 02:55:00,1591E-3,5C000400,-0724,0838,11031,027.7,045.4,0.221,747.3,01.17,0.508
2017-05-01 02:56:00,1641E-3,5C000400,-0724,0838,12133,027.8,045.4,0.221,747.3,01.17,0.508
2017-05-01 02:57:00,1630E-3,5C000400,-0724,0839,8617,027.8,045.5,0.221,747.3,01.17,0.508
2017-05-01 02:58:00,1555E-3,5C000400,-0724,0839,12254,027.8,045.4,0.221,747.3,01.17,0.508
2017-05-01 02:59:00,1674E-3,5C000400,-0724,0836,12086,027.7,045.4,0.221,747.3,01.17,0.508
2017-05-01 03:00:00,1699E-3,5C000400,-0724,0839,12289,027.8,045.5,0.222,747.3,01.17,0.508
2017-05-01 03:01:00,1645E-3,5C000400,-0724,0839,11248,027.7,045.5,0.221,747.3,01.17,0.508
2017-05-01 03:02:00,1604E-3,5C000400,-0724,0841,10188,027.7,045.4,0.222,747.3,01.17,0.508
2017-05-01 03:03:00,1570E-3,5C000400,-0724,0840,10275,027.7,045.4,0.221,747.3,01.17,0.508
2017-05-01 03:04:00,1609E-3,5C000400,-0724,0841,12339,027.7,045.5,0.221,747.3,01.17,0.508
2017-05-01 03:05:00,1477E-3,5C000400,-0724,0839,12478,027.6,045.4,0.221,747.3,01.17,0.508
2017-05-01 03:06:00,1575E-3,5C000400,-0724,0843,10063,027.6,045.4,0.221,747.3,01.17,0.508
2017-05-01 03:07:00,1506E-3,5C000400,-0724,0841,12407,027.7,045.5,0.222,747.3,01.17,0.508
2017-05-01 03:08:00,1545E-3,5C000400,-0724,0843,12488,027.7,045.5,0.221,747.3,01.17,0.508
2017-05-01 03:09:00,1633E-3,5C000400,-0724,0841,10933,027.7,045.4,0.222,747.3,01.17,0.508
2017-05-01 03:10:00,1585E-3,5C000400,-0724,0839,12232,027.7,045.4,0.222,747.2,01.17,0.508
2017-05-01 03:11:00,1494E-3,5C000400,-0724,0841,11230,027.7,045.5,0.222,747.2,01.17,0.508
2017-05-01 03:12:00,1590E-3,5C000400,-0724,0842,12224,027.7,045.4,0.222,747.2,01.17,0.508
2017-05-01 03:13:00,1658E-3,5C000400,-0724,0839,11189,027.7,045.4,0.222,747.2,01.17,0.508
2017-05-01 03:14:00,1599E-3,5C000400,-0724,0839,12417,027.7,045.4,0.221,747.2,01.17,0.508
2017-05-01 03:15:00,1684E-3,5C000400,-0724,0838,12398,027.6,045.4,0.222,747.2,01.17,0.508
2017-05-01 03:16:00,1709E-3,5C000400,-0724,0836,9861,027.6,045.4,0.222,747.2,01.17,0.508
2017-05-01 03:17:00,1560E-3,5C000400,-0724,0838,11205,027.7,045.4,0.221,747.2,01.17,0.508
2017-05-01 03:18:00,1661E-3,5C000400,-0724,0843,10086,027.7,045.5,0.222,747.2,01.17,0.508
2017-05-01 03:19:00,1650E-3,5C000400,-0724,0843,11085,027.7,045.5,0.221,747.2,01.17,0.508
2017-05-01 03:20:00,1596E-3,5C000400,-0724,0842,12202,027.7,045.4,0.222,747.2,01.17,0.508
2017-05-01 03:21:00,1625E-3,5C000400,-0724,0842,12455,027.7,045.4,0.221,747.2,01.17,0.508
2017-05-01 03:22:00,1531E-3,5C000400,-0724,0844,11442,027.6,045.4,0.222,747.2,01.17,0.508
2017-05-01 03:23:00,1663E-3,5C000400,-0724,0842,12560,027.6,045.4,0.222,747.3,01.17,0.508
2017-05-01 03:24:00,1704E-3,5C000400,-0724,0838,10032,027.6,045.4,0.222,747.3,01.17,0.508
2017-05-01 03:25:00,1720E-3,5C000400,-0724,0835,12305,027.7,045.4,0.222,747.3,01.17,0.508
2017-05-01 03:26:00,1655E-3,5C000400,-0724,0838,11024,027.7,045.4,0.221,747.3,01.17,0.508
2017-05-01 03:27:00,1717E-3,5C000400,-0724,0836,11093,027.8,045.4,0.222,747.2,01.17,0.508
2017-05-01 03:28:00,1623E-3,5C000410,-0724,0844,7751,027.7,045.4,0.221,747.2,01.17,0.508
2017-05-01 03:29:00,1572E-3,5C000400,-0724,0839,11212,027.6,045.4,0.222,747.2,01.17,0.508
2017-05-01 03:30:00,1747E-3,5C000400,-0724,0836,12263,027.6,045.4,0.221,747.3,01.17,0.508
2017-05-01 03:31:00,1692E-3,5C000410,-0724,0843,11414,027.7,045.4,0.222,747.3,01.17,0.508
2017-05-01 03:32:00,1542E-3,5C000400,-0724,0845,10145,027.7,045.5,0.222,747.3,01.17,0.508
2017-05-01 03:33:00,1673E-3,5C000400,-0724,0839,8873,027.7,045.5,0.222,747.3,01.17,0.508
2017-05-01 03:34:00,1597E-3,5C000400,-0724,0844,11305,027.7,045.4,0.222,747.2,01.17,0.508
2017-05-01 03:35:00,1647E-3,5C000400,-0724,0836,10992,027.7,045.4,0.221,747.2,01.17,0.508
2017-05-01 03:36:00,1575E-3,5C000400,-0724,0843,12590,027.6,045.4,0.222,747.3,01.17,0.508
2017-05-01 03:37:00,1592E-3,5C000400,-0724,0844,12361,027.7,045.4,0.221,747.2,01.17,0.508
2017-05-01 03:38:00,1643E-3,5C000400,-0724,0836,12142,027.7,045.4,0.222,747.2,01.17,0.508
2017-05-01 03:39:00,1580E-3,5C000400,-0724,0839,10146,027.7,045.5,0.222,747.2,01.17,0.508
2017-05-01 03:40:00,1619E-3,5C000400,-0724,0848,6432,027.6,045.5,0.222,747.2,01.17,0.508
2017-05-01 03:41:00,1549E-3,5C000400,-0724,0839,12481,027.6,045.5,0.222,747.2,01.17,0.508
2017-05-01 03:42:00,1578E-3,5C000400,-0724,0839,12324,027.7,045.5,0.222,747.2,01.17,0.508
2017-05-01 03:43:00,1619E-3,5C000400,-0724,0838,12351,027.7,045.4,0.222,747.2,01.17,0.508
2017-05-01 03:44:00,1622E-3,5C000400,-0724,0837,12243,027.7,045.4,0.221,747.2,01.17,0.508
2017-05-01 03:45:00,1693E-3,5C000400,-0724,0838,11082,027.6,045.4,0.222,747.2,01.17,0.508
2017-05-01 03:46:00,1698E-3,5C000400,-0724,0842,12664,027.6,045.4,0.222,747.2,01.17,0.508
2017-05-01 03:47:00,1816E-3,5C000400,-0724,0835,12320,027.6,045.4,0.222,747.1,01.17,0.508
2017-05-01 03:48:00,1545E-3,5C000400,-0724,0843,11240,027.6,045.4,0.222,747.2,01.17,0.508
2017-05-01 03:49:00,1753E-3,5C000400,-0724,0844,12174,027.7,045.4,0.222,747.2,01.17,0.508
2017-05-01 03:50:00,1565E-3,5C000400,-0724,0845,11200,027.7,045.5,0.222,747.2,01.17,0.508
2017-05-01 03:51:00,1590E-3,5C000400,-0724,0836,12198,027.7,045.4,0.221,747.2,01.17,0.508
2017-05-01 03:52:00,1724E-3,5C000400,-0724,0838,11114,027.7,045.4,0.222,747.2,01.17,0.508
2017-05-01 03:53:00,1651E-3,5C000400,-0724,0841,11115,027.6,045.4,0.221,747.2,01.17,0.508
2017-05-01 03:54:00,1663E-3,5C000400,-0724,0835,12538,027.6,045.4,0.221,747.2,01.17,0.508
2017-05-01 03:55:00,1660E-3,5C000400,-0724,0840,12154,027.6,045.4,0.222,747.2,01.17,0.508
2017-05-01 03:56:00,1673E-3,5C000400,-0724,0839,12348,027.7,045.4,0.221,747.3,01.17,0.508
2017-05-01 03:57:00,1641E-3,5C000400,-0724,0836,12166,027.6,045.5,0.222,747.2,01.17,0.508
2017-05-01 03:58:00,1600E-3,5C000400,-0724,0842,12462,027.6,045.5,0.221,747.2,01.17,0.508
2017-05-01 03:59:00,1684E-3,5C000400,-0724,0839,12455,027.6,045.4,0.222,747.2,01.17,0.508
2017-05-01 04:00:00,1717E-3,5C000400,-0724,0836,12099,027.7,045.5,0.222,747.2,01.17,0.508
2017-05-01 04:01:00,1628E-3,5C000400,-0724,0840,10031,027.6,045.4,0.222,747.2,01.17,0.508
2017-05-01 04:02:00,1522E-3,5C000400,-0724,0838,12279,027.6,045.4,0.222,747.2,01.17,0.508
2017-05-01 04:03:00,1513E-3,5C000400,-0724,0836,12265,027.6,045.4,0.222,747.2,01.17,0.508
2017-05-01 04:04:00,1659E-3,5C000400,-0724,0835,12065,027.6,045.4,0.222,747.2,01.17,0.508
2017-05-01 04:05:00,1734E-3,5C000400,-0724,0838,12349,027.6,045.4,0.222,747.2,01.17,0.508
2017-05-01 04:06:00,1572E-3,5C000400,-0724,0841,12341,027.7,045.5,0.222,747.2,01.17,0.508
2017-05-01 04:07:00,1624E-3,5C000400,-0724,0840,12331,027.7,045.4,0.221,747.2,01.17,0.508
2017-05-01 04:08:00,1723E-3,5C000400,-0724,0840,12356,027.6,045.5,0.222,747.2,01.17,0.508
2017-05-01 04:09:00,1632E-3,5C000400,-0724,0844,8742,027.6,045.5,0.221,747.2,01.17,0.508
2017-05-01 04:10:00,1745E-3,5C000400,-0724,0843,10073,027.6,045.4,0.222,747.1,01.17,0.508
2017-05-01 04:11:00,1557E-3,5C000400,-0724,0846,12645,027.6,045.5,0.222,747.1,01.17,0.508
2017-05-01 04:12:00,1594E-3,5C000400,-0724,0840,11228,027.6,045.5,0.222,747.1,01.17,0.508
2017-05-01 04:13:00,1640E-3,5C000400,-0724,0842,9990,027.6,045.5,0.222,747.1,01.17,0.508
2017-05-01 04:14:00,1571E-3,5C000400,-0724,0843,11301,027.6,045.4,0.222,747.2,01.17,0.508
2017-05-01 04:15:00,1783E-3,5C000400,-0724,0844,10224,027.6,045.4,0.221,747.2,01.17,0.508
2017-05-01 04:16:00,1608E-3,5C000400,-0724,0841,11192,027.6,045.4,0.222,747.2,01.17,0.508
2017-05-01 04:17:00,1706E-3,5C000400,-0724,0836,12256,027.6,045.4,0.222,747.2,01.17,0.508
2017-05-01 04:18:00,1553E-3,5C000400,-0724,0839,11214,027.6,045.4,0.222,747.2,01.17,0.508
2017-05-01 04:19:00,1426E-3,5C000400,-0724,0846,11446,027.6,045.5,0.222,747.3,01.17,0.508
2017-05-01 04:20:00,1646E-3,5C000400,-0724,0846,11566,027.6,045.4,0.222,747.2,01.17,0.508